This is the latest recevied weather packets stored in our database for station/object OK1VCF-8. If no packets are shown the sender has not sent any weather packets the latest 10 day(s).
| Time | Temp. | Humidity | Pressure | Rain* | Wind** | Luminosity | Snow |
|---|---|---|---|---|---|---|---|
| 1777799965 | 23.89° C | 30% | 1017.6 hPa | - | - | - | - |
| 1777799527 | 23.33° C | 31% | 1017.7 hPa | - | - | - | - |
| 1777799087 | 23.33° C | 32% | 1017.6 hPa | - | - | - | - |
| 1777798645 | 23.33° C | 32% | 1017.7 hPa | - | - | - | - |
| 1777798206 | 23.33° C | 32% | 1017.8 hPa | - | - | - | - |
| 1777797765 | 22.78° C | 32% | 1017.8 hPa | - | - | - | - |
| 1777797319 | 22.78° C | 33% | 1017.8 hPa | - | - | - | - |
| 1777796879 | 22.22° C | 34% | 1017.8 hPa | - | - | - | - |
| 1777795413 | 21.67° C | 38% | 1018 hPa | - | - | - | - |
| 1777794971 | 21.11° C | 38% | 1018.2 hPa | - | - | - | - |
| 1777794532 | 21.11° C | 40% | 1018.2 hPa | - | - | - | - |
| 1777794090 | 20° C | 40% | 1018.2 hPa | - | - | - | - |
| 1777793652 | 20° C | 40% | 1018.3 hPa | - | - | - | - |
| 1777793212 | 18.89° C | 42% | 1018.3 hPa | - | - | - | - |
| 1777792772 | 18.33° C | 44% | 1018.2 hPa | - | - | - | - |
| 1777792317 | 17.78° C | 45% | 1018.4 hPa | - | - | - | - |
| 1777791862 | 17.78° C | 46% | 1018.4 hPa | - | - | - | - |
| 1777791404 | 16.67° C | 46% | 1018.6 hPa | - | - | - | - |
| 1777790952 | 16.67° C | 48% | 1018.6 hPa | - | - | - | - |
| 1777790498 | 16.67° C | 48% | 1018.4 hPa | - | - | - | - |
| 1777790043 | 15.56° C | 50% | 1018.6 hPa | - | - | - | - |
| 1777789587 | 15.56° C | 51% | 1018.6 hPa | - | - | - | - |
| 1777788964 | 15° C | 52% | 1018.5 hPa | - | - | - | - |
| 1777788508 | 15° C | 54% | 1018.5 hPa | - | - | - | - |
| 1777788054 | 14.44° C | 55% | 1018.4 hPa | - | - | - | - |
* Rain since midnight (hover to see other rain measurements)
** Current wind speed in m/s (hover to see current wind gust speed)